User: anonymous   Login
Location: Unspecified
(0.0000°N, 0.0000°E)
Time: 04:13:48
(UTC+00:00)
Language:

ONEWEB-0285 - Orbit

View from above orbital plane
View from above orbital plane
View from above satellite
View from above satellite

Ground track
Ground track

The orbit is defined by the following mean orbital elements,

1 49075U          26145.34159450 +.00000000 +00000-0 +12291-2 0 00004
2 49075  87.8959 355.2052 0001719  85.6424 274.4901 13.12441354    07
Epoch (UTC): 25 May 2026 08:11:53
Eccentricity: 0.0001719
inclination: 87.8959°
perigee height: 1212 km
apogee height: 1215 km
right ascension of ascending node: 355.2052°
argument of perigee: 85.6424°
revolutions per day: 13.12441354
mean anomaly at epoch: 274.4901°

The dashed part of the orbit path shows where the satellite is in the earth's shadow,  

DLR